Weather History for Berlin, NH

Change the Weather History Date:

Sunday, March 17, 2013

  Actual Average Record
Temperature  
Mean Temperature 12 °F -  
Max Temperature 23 °F 32 °F 62 °F (2003)
Min Temperature 1 °F 12 °F -18 °F (2014)
Degree Days  
Heating Degree Days 53    
Moisture  
Dew Point -1 °F    
Average Humidity 56    
Maximum Humidity 80    
Minimum Humidity 32    
Precipitation  
Precipitation 0.00 in - - ()
Sea Level Pressure  
Sea Level Pressure 30.06 in    
Wind  
Wind Speed 4 mph (WNW)    
Max Wind Speed 15 mph    
Max Gust Speed 38 mph    
Visibility 10 miles    
Events      
Averages and records for this station are not official NWS values.
T = Trace of Precipitation, MM = Missing Value Source: NWS Daily Summary

Daily Weather History Graph

Daily Weather History Graph

Search for Another Location

Airport:

Trip Planner

Search our weather history database for the weather conditions in past years. The results will help you decide how hot, cold, wet, or windy it might be!

Date:

Astronomy

Mar. 17, 2013 Rise Set
Actual Time 6:53 AM EDT 6:53 PM EDT
Civil Twilight 6:24 AM EDT 7:22 PM EDT
Nautical Twilight 5:50 AM EDT 7:56 PM EDT
Astronomical Twilight 5:15 AM EDT 8:31 PM EDT
Moon 9:50 AM EDT (3/17) 12:11 AM EDT (3/17)
Length of Visible Light 12h 58m
Length of Day
12h 00m
Waxing Crescent, 31% of the Moon is Illuminated
Mar 17
Waxing Crescent
Mar 19
First Quarter
Mar 27
Full
Apr 3
Last Quarter
Apr 10
New

Hourly Weather History & Observations

Time (EDT) Temp. Windchill Dew Point Humidity Pressure Visibility Wind Dir Wind Speed Gust Speed Precip Events Conditions
12:52 AM 7.0 °F - 1.9 °F 80% 29.90 in 10.0 mi Calm Calm - N/A   Clear
1:52 AM 6.1 °F - 1.0 °F 80% 29.91 in 10.0 mi Calm Calm - N/A   Clear
2:52 AM 3.9 °F - -0.9 °F 80% 29.91 in 10.0 mi Calm Calm - N/A   Clear
3:52 AM 1.9 °F - -2.9 °F 80% 29.92 in 10.0 mi Calm Calm - N/A   Clear
4:52 AM 1.9 °F - -2.9 °F 80% 29.94 in 10.0 mi Calm Calm - N/A   Mostly Cloudy
5:52 AM 1.0 °F - -5.1 °F 75% 29.94 in 10.0 mi Calm Calm - N/A   Clear
6:52 AM 1.9 °F - -2.9 °F 80% 29.95 in 10.0 mi Calm Calm - N/A   Clear
7:52 AM 3.9 °F - -0.9 °F 80% 29.96 in 10.0 mi Calm Calm - N/A   Clear
8:52 AM 16.0 °F 6.3 °F 1.0 °F 52% 29.99 in 10.0 mi Variable 6.9 mph - N/A   Overcast
9:52 AM 18.0 °F 7.7 °F 1.9 °F 50% 30.00 in 10.0 mi West 8.1 mph - N/A   Mostly Cloudy
10:52 AM 19.0 °F 9.0 °F 3.9 °F 52% 30.02 in 10.0 mi NW 8.1 mph 17.3 mph N/A   Mostly Cloudy
12:52 PM 19.9 °F 9.3 °F 1.0 °F 44% 30.06 in 10.0 mi NW 9.2 mph 38.0 mph 0.00 in   Overcast
1:52 PM 23.0 °F 10.1 °F -0.9 °F 35% 30.06 in 10.0 mi WNW 15.0 mph 28.8 mph 0.00 in   Overcast
2:52 PM 19.9 °F 6.2 °F 1.9 °F 46% 30.08 in 10.0 mi NNW 15.0 mph 21.9 mph 0.00 in   Overcast
3:52 PM 21.9 °F 9.2 °F 1.0 °F 40% 30.09 in 10.0 mi WNW 13.8 mph 28.8 mph N/A   Overcast
5:52 PM 19.9 °F 8.6 °F -6.0 °F 32% 30.14 in 10.0 mi WNW 10.4 mph 23.0 mph N/A   Partly Cloudy
6:52 PM 18.0 °F 6.9 °F -6.0 °F 35% 30.18 in 10.0 mi WNW 9.2 mph 18.4 mph N/A   Clear
7:52 PM 17.1 °F 7.6 °F -2.9 °F 41% 30.23 in 10.0 mi Variable 6.9 mph - N/A   Clear
8:52 PM 16.0 °F 10.4 °F -2.9 °F 43% 30.25 in 10.0 mi WSW 3.5 mph - N/A   Clear
9:52 PM 15.1 °F 5.2 °F -2.9 °F 45% 30.28 in 10.0 mi WSW 6.9 mph - N/A   Clear
10:52 PM 14.0 °F 6.5 °F -4.0 °F 45% 30.29 in 10.0 mi WSW 4.6 mph - N/A   Clear
11:52 PM 14.0 °F 8.2 °F -5.1 °F 43% 30.30 in 10.0 mi Variable 3.5 mph - N/A   Clear